Location: Observatory
(52.1446°N, 0.4624°W)
Time: 02:06:10
(UTC+01:00)

ISS - Pass Details

Date: 22 May 2018
Orbit: 402 x 406 km, 51.6° (Epoch: 21 June)

Event Time Altitude Azimuth Distance (km) Brightness Sun altitude
Rises 21:54:02 0° 218° (SW) 2,313 -0.1 -7.0°
Reaches altitude 10° 21:56:21 10° 204° (SSW) 1,456 -1.2 -7.2°
Maximum altitude 21:59:02 24° 148° (SSE) 890 -2.7 -7.5°
Drops below altitude 10° 22:01:44 10° 93° (E) 1,460 -1.4 -7.8°
Sets 22:04:03 0° 78° (ENE) 2,322 -0.3 -8.0°
